Station WKXA1 - Safe Harbor Met Station, Weeks Bay Reserve, AL Image indicating link to RSS feed of recent meteorological observations for station WKXA1


Conditions at WKXA1 as of
(6:00 am CDT)
1100 GMT on 09/03/2026:
     

Click on the graph icon in the table below to see a time series plot of the last five days of that observation.

5-day plot - Wind Speed Wind Speed (WSPD): 0.0 kts
5-day plot - Atmospheric Pressure Atmospheric Pressure (PRES):29.97 in
5-day plot - Pressure Tendency Pressure Tendency (PTDY):+0.00 in ( Steady )
5-day plot - Air Temperature Air Temperature (ATMP): 76.1 °F
5-day plot - Dew Point Dew Point (DEWP): 75.7 °F
5-day plot -  Wind Speed, Wind Gust and Atmospheric Pressure Combined plot of Wind Speed, Gust, and Air Pressure
Previous observations
TIME
(CDT)
5-day plot - Wind Direction
WDIR
 
5-day plot - Wind Speed
WSPD
kts
5-day plot - Wind Gust
GST
kts
5-day plot - Wave Height
WVHT
ft
5-day plot - Dominant Wave Period
DPD
sec
5-day plot - Average Wave Period
APD
sec
5-day plot - Mean Wave Direction
MWD
 
5-day plot - Atmospheric Pressure
PRES
in
5-day plot - Pressure Tendency
PTDY
in
5-day plot - Air Temperature
ATMP
°F
5-day plot - Water Temperature
WTMP
°F
5-day plot - Dew Point
DEWP
°F
5-day plot - Salinity
SAL
psu
5-day plot - Visibility
VIS
nmi
5-day plot - Tide (above MLLW)
TIDE
ft
2026-09-03 05:45 am- 0.0-----29.97- 76.3- 75.9---
2026-09-03 05:30 am- 0.0-----29.97- 76.3- 75.9---
2026-09-03 05:15 am- 0.0-----29.97- 76.3- 75.9---
2026-09-03 05:00 am- 0.0-----29.97+0.00 76.3- 75.9---
2026-09-03 04:45 am- 0.0-----29.97- 76.3- 75.9---
2026-09-03 04:30 am- 0.0-----29.97- 76.5- 76.1---
2026-09-03 04:15 am- 0.0-----29.97- 76.3- 75.9---
2026-09-03 04:00 am- 0.0-----29.97-0.03 76.3- 75.9---
2026-09-03 03:45 am- 0.0-----29.97- 76.5- 76.1---
2026-09-03 03:30 am- 0.0-----29.97- 76.5- 76.1---
2026-09-03 03:15 am- 0.0-----29.97- 76.6- 76.3---
2026-09-03 03:00 am- 0.0-----29.97-0.03 76.6- 76.3---
2026-09-03 02:45 am- 0.0-----29.97- 76.6- 76.3---
2026-09-03 02:30 am- 0.0-----29.97- 76.8- 76.5---
2026-09-03 02:15 am- 0.0-----29.97- 77.0- 76.6---
2026-09-03 02:00 am- 0.0-----29.97-0.03 77.2- 76.8---
2026-09-03 01:45 am- 0.0-----30.00- 77.2- 76.8---
2026-09-03 01:30 am- 0.0-----30.00- 77.4- 77.0---
2026-09-03 01:15 am- 0.0-----30.00- 77.4- 77.0---
2026-09-03 01:00 am- 0.0-----30.00+0.00 77.4- 77.0---
2026-09-03 12:45 am- 0.0-----30.00- 77.4- 77.0---
2026-09-03 12:30 am- 0.0-----30.00- 77.4- 77.0---
2026-09-03 12:15 am- 0.0-----30.00- 77.5- 77.2---
2026-09-03 12:00 am- 0.0-----30.00+0.00 77.5- 77.2---
2026-09-02 11:45 pm- 0.0-----30.00- 77.5- 77.2---
2026-09-02 11:30 pm- 0.0-----30.00- 77.7- 77.4---
2026-09-02 11:15 pm- 0.0-----30.00- 77.7- 77.4---
2026-09-02 11:00 pm- 0.0-----30.00+0.03 77.9- 77.5---
2026-09-02 10:45 pm- 0.0-----30.00- 77.9- 77.5---
2026-09-02 10:30 pm- 0.0-----30.00- 77.9- 77.5---
2026-09-02 10:15 pm- 0.0-----30.00- 78.3- 77.9---
2026-09-02 10:00 pm- 0.0-----30.00+0.03 78.3- 77.9---
2026-09-02 09:45 pm- 0.0-----30.00- 78.4- 77.9---
2026-09-02 09:30 pm- 0.0-----30.00- 78.6- 78.1---
2026-09-02 09:15 pm- 0.0-----30.00- 78.8- 78.3---
2026-09-02 09:00 pm- 0.0-----30.00+0.03 78.8- 78.3---
2026-09-02 08:45 pm- 0.0-----29.97- 79.2- 78.6---
2026-09-02 08:30 pm- 0.0-----29.97- 79.3- 78.4---
2026-09-02 08:15 pm- 0.0-----29.97- 79.5- 78.3---
2026-09-02 08:00 pm- 0.0-----29.97+0.00 79.9- 78.4---
2026-09-02 07:45 pm- 0.0-----29.97- 80.4- 78.3---
2026-09-02 07:30 pm- 0.0-----29.97- 81.1- 78.1---
2026-09-02 07:15 pm- 0.0-----29.97- 81.9- 78.1---
2026-09-02 07:00 pm- 0.0-----29.97-0.03 82.8- 77.5---
2026-09-02 06:45 pm- 0.0-----29.97- 83.8- 76.8---
2026-09-02 06:30 pm- 0.0-----29.97- 85.3- 76.3---
2026-09-02 06:15 pm- 0.0-----29.97- 86.0- 76.6---
2026-09-02 06:00 pm- 0.0-----29.97-0.03 87.4- 77.9---
2026-09-02 05:45 pm- 0.0-----29.97- 89.1- 77.9---
2026-09-02 05:30 pm E 1.0-----29.97- 88.2- 77.4---
2026-09-02 05:15 pm- 0.0-----29.97- 88.5- 77.7---
2026-09-02 05:00 pm- 0.0-----29.97-0.09 88.3- 77.2---
2026-09-02 04:45 pm- 0.0-----29.97- 88.2- 77.4---
2026-09-02 04:30 pm- 0.0-----29.97- 88.0- 76.5---
2026-09-02 04:15 pm- 0.0-----29.97- 86.7- 77.7---
2026-09-02 04:00 pmWNW 1.0-----30.00-0.03 84.9- 78.3---
2026-09-02 03:45 pm N 1.0-----30.00- 82.6- 77.7---
2026-09-02 03:30 pm- 0.0-----30.00- 80.4- 77.4---
2026-09-02 03:15 pm- 0.0-----30.00- 78.8- 77.5---
2026-09-02 03:00 pm- 0.0-----30.00-0.06 77.5- 76.6---
2026-09-02 02:45 pm- 0.0-----30.03- 77.0- 76.1---
2026-09-02 02:30 pm- 0.0-----30.03- 76.8- 76.3---
2026-09-02 02:15 pm W 1.0-----30.03- 76.5- 75.2---
2026-09-02 02:00 pm E 1.0-----30.06+0.00 77.0- 75.2---
2026-09-02 01:45 pm SE 1.9-----30.03- 78.8- 75.4---
2026-09-02 01:30 pmSSE 2.9-----30.03- 83.7- 75.2---
2026-09-02 01:15 pmSSE 1.9-----30.03- 90.0- 75.6---
2026-09-02 01:00 pmNNE 1.0-----30.03-0.03 92.5- 75.6---
2026-09-02 12:45 pm N 1.9-----30.03- 91.9- 75.0---
2026-09-02 12:30 pm NW 1.9-----30.03- 91.6- 75.7---
2026-09-02 12:15 pmNNE 1.9-----30.06- 91.6- 76.1---
2026-09-02 12:00 pmNNE 1.9-----30.06+0.00 90.9- 76.5---
2026-09-02 11:45 am NE 1.9-----30.06- 89.6- 76.1---
2026-09-02 11:30 amNNE 1.9-----30.06- 88.9- 75.6---
2026-09-02 11:15 am N 1.9-----30.06- 89.2- 75.9---
2026-09-02 11:00 am N 1.9-----30.06+0.00 89.2- 76.3---
2026-09-02 10:45 am NE 2.9-----30.06- 89.2- 76.3---
2026-09-02 10:30 amNNE 1.9-----30.06- 88.5- 76.1---
2026-09-02 10:15 amNNE 2.9-----30.06- 88.0- 75.9---
2026-09-02 10:00 amNNE 2.9-----30.06+0.00 86.9- 76.3---
2026-09-02 09:45 am N 1.9-----30.06- 86.2- 76.8---
2026-09-02 09:30 am N 1.9-----30.06- 84.9- 77.5---
2026-09-02 09:15 am N 2.9-----30.06- 84.2- 77.9---
2026-09-02 09:00 am N 1.9-----30.06+0.03 83.3- 78.1---
2026-09-02 08:45 amNNE 1.9-----30.06- 82.6- 78.8---
2026-09-02 08:30 am N 1.9-----30.06- 81.3- 78.4---
2026-09-02 08:15 amNNE 1.9-----30.06- 79.7- 78.3---
2026-09-02 08:00 amNNE 1.9-----30.06+0.03 78.6- 77.7---
2026-09-02 07:45 am N 1.0-----30.06- 77.7- 77.4---
2026-09-02 07:30 am- 0.0-----30.06- 77.2- 76.8---
2026-09-02 07:15 am- 0.0-----30.06- 76.6- 76.3---
2026-09-02 07:00 am- 0.0-----30.06+0.06 76.3- 75.9---
2026-09-02 06:45 am- 0.0-----30.06- 75.7- 75.4---
2026-09-02 06:30 am- 0.0-----30.03- 75.9- 75.6---
2026-09-02 06:15 am- 0.0-----30.03- 75.9- 75.6---
2026-09-02 06:00 am- 0.0-----30.03+0.03 75.9- 75.6---